Simultaneous Nadir Overpasses (SNOs) Predictions

Prediction of SNOs between METOP-B and NOAA-19 Satellite Orbit:

Table of predicted SNOs for the next 14.0 days since TLE Epoch: 2/23/2018
Index Date (METOP-B) Time (METOP-B) Lat,Lon (METOP-B) SZA (METOP-B ) Date (NOAA-19) Time (NOAA-19) Lat,Lon (NOAA-19) SZA (NOAA-19 ) Distance(km) Time Diff (sec)
1 02/28/2018 22:31:17 -78.06, 30.60 94.26 02/28/2018 22:30:03 -78.05, 30.64 94.27 1.32 74
2 02/28/2018 23:21:58 78.03,-162.19 85.71 02/28/2018 23:21:03 78.04,-162.05 85.71 3.31 55
3 03/01/2018 00:12:39 -78.04, 5.17 94.30 03/01/2018 00:12:04 -78.04, 5.20 94.30 0.61 35
4 03/01/2018 01:03:20 78.02, 172.38 85.66 03/01/2018 01:03:04 78.03, 172.51 85.68 3.30 16
5 03/01/2018 01:54:01 -78.02, -20.26 94.35 03/01/2018 01:54:05 -78.03, -20.25 94.34 0.71 4
6 03/01/2018 02:44:41 78.04, 147.16 85.66 03/01/2018 02:45:05 78.02, 147.07 85.64 3.22 24
7 03/01/2018 03:35:23 -78.00, -45.69 94.39 03/01/2018 03:36:06 -78.02, -45.69 94.38 1.47 43
8 03/01/2018 04:26:03 78.02, 121.73 85.62 03/01/2018 04:27:06 78.01, 121.63 85.60 2.89 63




NCC Satellite Simultaneous Nadir Overpasses (SNOs) Prediction Service
